Location: Waco, TX
(31.5480°N, 97.1670°W)
Time: 12:44:42
(UTC-05:00)

ISS - Pass Details

Date: 18 May 2018
Orbit: 402 x 407 km, 51.6° (Epoch: 27 May)

Event Time Altitude Azimuth Distance (km) Brightness Sun altitude
Rises 07:20:00 0° 306° (NW) 2,313 -0.3 9.1°
Reaches altitude 10° 07:22:10 10° 297° (WNW) 1,452 -1.4 9.5°
Maximum altitude 07:25:11 35° 230° (SW) 662 -3.1 10.1°
Drops below altitude 10° 07:28:11 10° 162° (SSE) 1,446 -1.0 10.7°
Sets 07:30:20 0° 153° (SSE) 2,302 0.1 11.2°
